Seminole, OK

4:14 PM CDT on October 21, 2019 (GMT -0500)
Seminole

Weather History for KSRE - September, 2019

Change the Weather History Date:

Wednesday, September 18, 2019

  Actual Average (KADH) Record (KADH)
Temperature  
Mean Temperature 81 °F -  
Max Temperature 93 °F 85 °F 99 °F (1931)
Min Temperature 69 °F 61 °F 39 °F (1981)
Cooling Degree Days 16    
Growing Degree Days 31 (Base 50)    
Moisture  
Dew Point 67 °F    
Average Humidity 65    
Maximum Humidity 88    
Minimum Humidity 41    
Precipitation  
Precipitation 0.00 in - - ()
Sea Level Pressure  
Sea Level Pressure 29.96 in    
Wind  
Wind Speed 3 mph ()    
Max Wind Speed 10 mph    
Max Gust Speed 20 mph    
Visibility 10.0 miles    
Events      
Averages and records for this station are not official NWS values.
T = Trace of Precipitation, MM = Missing Value Source: Averaged Metar Reports

Daily Weather History Graph

Daily Weather History Graph

Search for Another Location

Airport or City:

Astronomy

Sep. 18, 2019 Rise Set
Actual Time 7:11 AM CDT 7:29 PM CDT
Civil Twilight 6:46 AM CDT 7:54 PM CDT
Nautical Twilight 6:16 AM CDT 8:24 PM CDT
Astronomical Twilight 5:46 AM CDT 8:54 PM CDT
Moon 10:13 PM CDT (9/18) 11:07 AM CDT (9/18)
Length of Visible Light 13h 08m
Length of Day
12h 18m
Waning Gibbous, 82% of the Moon is Illuminated
Sep 18
Waning Gibbous
Sep 21
Last Quarter
Sep 28
New
Oct 5
First Quarter
Oct 13
Full

Hourly Weather History & Observations

Time (CDT) Temp. Heat Index Dew Point Humidity Pressure Visibility Wind Dir Wind Speed Gust Speed Precip Events Conditions
12:15 AM 77.0 °F - 66.2 °F 69% 29.96 in 10.0 mi Calm Calm - N/A   Clear
12:35 AM 75.2 °F - 66.2 °F 73% 29.96 in 10.0 mi Calm Calm - N/A   Clear
12:55 AM 73.4 °F - 66.2 °F 78% 29.95 in 10.0 mi Calm Calm - N/A   Clear
1:15 AM 75.2 °F - 66.2 °F 73% 29.96 in 10.0 mi SE 3.5 mph - N/A   Clear
1:35 AM 73.4 °F - 66.2 °F 78% 29.96 in 10.0 mi Calm Calm - N/A   Clear
1:55 AM 75.2 °F - 66.2 °F 73% 29.96 in 10.0 mi Calm Calm - N/A   Clear
2:15 AM 73.4 °F - 66.2 °F 78% 29.96 in 10.0 mi SE 4.6 mph - N/A   Clear
2:35 AM 73.4 °F - 66.2 °F 78% 29.96 in 10.0 mi Calm Calm - N/A   Clear
2:55 AM 73.4 °F - 66.2 °F 78% 29.95 in 10.0 mi Calm Calm - N/A   Clear
3:15 AM 73.4 °F - 66.2 °F 78% 29.95 in 10.0 mi Calm Calm - N/A   Clear
3:35 AM 73.4 °F - 66.2 °F 78% 29.96 in 10.0 mi Calm Calm - N/A   Clear
3:55 AM 73.4 °F - 66.2 °F 78% 29.96 in 10.0 mi Calm Calm - N/A   Clear
4:15 AM 71.6 °F - 66.2 °F 83% 29.95 in 10.0 mi ESE 3.5 mph - N/A   Clear
4:35 AM 71.6 °F - 66.2 °F 83% 29.95 in 10.0 mi Calm Calm - N/A   Clear
4:55 AM 69.8 °F - 66.2 °F 88% 29.96 in 10.0 mi Calm Calm - N/A   Clear
5:15 AM 71.6 °F - 66.2 °F 83% 29.96 in 10.0 mi Calm Calm - N/A   Clear
5:35 AM 69.8 °F - 66.2 °F 88% 29.96 in 10.0 mi Calm Calm - N/A   Clear
5:55 AM 69.8 °F - 66.2 °F 88% 29.97 in 10.0 mi Calm Calm - N/A   Clear
6:15 AM 71.6 °F - 66.2 °F 83% 29.97 in 10.0 mi Calm Calm - N/A   Clear
6:35 AM 71.6 °F - 66.2 °F 83% 29.98 in 10.0 mi Calm Calm - N/A   Clear
6:55 AM 69.8 °F - 66.2 °F 88% 29.99 in 10.0 mi ESE 3.5 mph - N/A   Clear
7:15 AM 69.8 °F - 66.2 °F 88% 29.99 in 10.0 mi ESE 3.5 mph - N/A   Clear
7:35 AM 71.6 °F - 66.2 °F 83% 30.00 in 10.0 mi Calm Calm - N/A   Clear
7:55 AM 71.6 °F - 66.2 °F 83% 30.00 in 10.0 mi ESE 4.6 mph - N/A   Clear
8:15 AM 73.4 °F - 66.2 °F 78% 30.00 in 10.0 mi ESE 4.6 mph - N/A   Clear
8:35 AM 75.2 °F - 68.0 °F 78% 30.01 in 10.0 mi SE 5.8 mph - N/A   Clear
8:55 AM 77.0 °F - 68.0 °F 74% 30.01 in 10.0 mi SE 9.2 mph - N/A   Clear
9:15 AM 78.8 °F - 68.0 °F 69% 30.01 in 10.0 mi SE 5.8 mph - N/A   Clear
9:35 AM 80.6 °F 83.2 °F 68.0 °F 65% 30.01 in 10.0 mi SSE 8.1 mph - N/A   Clear
9:55 AM 82.4 °F 86.3 °F 69.8 °F 66% 30.01 in 10.0 mi SE 5.8 mph - N/A   Clear
10:15 AM 82.4 °F 86.3 °F 69.8 °F 66% 30.01 in 10.0 mi SE 5.8 mph - N/A   Clear
10:35 AM 84.2 °F 88.4 °F 69.8 °F 62% 30.01 in 10.0 mi Variable 3.5 mph - N/A   Clear
10:55 AM 86.0 °F 89.4 °F 68.0 °F 55% 30.01 in 10.0 mi SE 9.2 mph - N/A   Clear
11:15 AM 86.0 °F 89.4 °F 68.0 °F 55% 30.01 in 10.0 mi Variable 4.6 mph - N/A   Clear
11:35 AM 87.8 °F 91.4 °F 68.0 °F 52% 30.01 in 10.0 mi Variable 5.8 mph 13.8 mph N/A   Clear
11:55 AM 87.8 °F 91.4 °F 68.0 °F 52% 30.01 in 10.0 mi South 8.1 mph - N/A   Clear
12:15 PM 89.6 °F 93.4 °F 68.0 °F 49% 30.00 in 10.0 mi SE 9.2 mph - N/A   Clear
12:35 PM 89.6 °F 93.4 °F 68.0 °F 49% 30.00 in 10.0 mi SE 10.4 mph 17.3 mph N/A   Clear
12:55 PM 89.6 °F 93.4 °F 68.0 °F 49% 29.99 in 10.0 mi Variable 6.9 mph 15.0 mph N/A   Partly Cloudy
1:15 PM 89.6 °F 93.4 °F 68.0 °F 49% 29.99 in 10.0 mi Variable 6.9 mph 16.1 mph N/A   Scattered Clouds
1:35 PM 89.6 °F 92.2 °F 66.2 °F 46% 29.98 in 10.0 mi South 9.2 mph 19.6 mph N/A   Scattered Clouds
1:55 PM 91.4 °F 94.0 °F 66.2 °F 43% 29.98 in 10.0 mi SSE 10.4 mph 17.3 mph N/A   Partly Cloudy
2:15 PM 91.4 °F 94.0 °F 66.2 °F 43% 29.96 in 10.0 mi SSE 10.4 mph 19.6 mph N/A   Scattered Clouds
2:35 PM 89.6 °F 92.2 °F 66.2 °F 46% 29.95 in 10.0 mi South 10.4 mph 16.1 mph N/A   Partly Cloudy
2:55 PM 91.4 °F 94.0 °F 66.2 °F 43% 29.95 in 10.0 mi SSE 8.1 mph 16.1 mph N/A   Clear
3:15 PM 91.4 °F 94.0 °F 66.2 °F 43% 29.94 in 10.0 mi South 8.1 mph 16.1 mph N/A   Partly Cloudy
3:35 PM 93.2 °F 96.2 °F 66.2 °F 41% 29.93 in 10.0 mi South 6.9 mph 15.0 mph N/A   Scattered Clouds
3:55 PM 93.2 °F 96.2 °F 66.2 °F 41% 29.93 in 10.0 mi SSE 8.1 mph 15.0 mph N/A   Scattered Clouds
4:15 PM 91.4 °F 94.0 °F 66.2 °F 43% 29.93 in 10.0 mi SE 8.1 mph - N/A   Partly Cloudy
4:35 PM 91.4 °F 94.0 °F 66.2 °F 43% 29.92 in 10.0 mi South 8.1 mph 13.8 mph N/A   Partly Cloudy
4:55 PM 93.2 °F 96.2 °F 66.2 °F 41% 29.92 in 10.0 mi ESE 5.8 mph - N/A   Clear
5:15 PM 91.4 °F 94.0 °F 66.2 °F 43% 29.92 in 10.0 mi ESE 6.9 mph - N/A   Clear
5:55 PM 91.4 °F 93.2 °F 64.4 °F 41% 29.92 in 10.0 mi SE 6.9 mph - N/A   Clear
6:15 PM 89.6 °F 91.1 °F 64.4 °F 43% 29.92 in 10.0 mi SE 5.8 mph - N/A   Clear
6:35 PM 89.6 °F 92.2 °F 66.2 °F 46% 29.92 in 10.0 mi South 3.5 mph - N/A   Clear
7:15 PM 86.0 °F 89.4 °F 68.0 °F 55% 29.92 in 10.0 mi Calm Calm - N/A   Clear
7:35 PM 84.2 °F 87.3 °F 68.0 °F 58% 29.92 in 10.0 mi Calm Calm - N/A   Clear
7:55 PM 84.2 °F 87.3 °F 68.0 °F 58% 29.92 in 10.0 mi Calm Calm - N/A   Clear
8:15 PM 82.4 °F 85.4 °F 68.0 °F 62% 29.93 in 10.0 mi Calm Calm - N/A   Clear
8:35 PM 78.8 °F - 69.8 °F 74% 29.93 in 10.0 mi ENE 5.8 mph - N/A   Clear
8:55 PM 78.8 °F - 69.8 °F 74% 29.94 in 10.0 mi ENE 3.5 mph - N/A   Scattered Clouds
9:15 PM 82.4 °F 84.6 °F 66.2 °F 58% 29.94 in 10.0 mi East 4.6 mph - N/A   Partly Cloudy
9:35 PM 80.6 °F 82.7 °F 66.2 °F 61% 29.95 in 10.0 mi East 3.5 mph - N/A   Clear
9:55 PM 80.6 °F 82.7 °F 66.2 °F 61% 29.95 in 10.0 mi ESE 4.6 mph - N/A   Partly Cloudy
10:15 PM 78.8 °F - 66.2 °F 65% 29.96 in 10.0 mi SE 4.6 mph - N/A   Mostly Cloudy
10:35 PM 78.8 °F - 68.0 °F 69% 29.96 in 10.0 mi SE 4.6 mph - N/A   Partly Cloudy
10:55 PM 78.8 °F - 68.0 °F 69% 29.96 in 10.0 mi SE 5.8 mph - N/A   Clear
11:15 PM 78.8 °F - 68.0 °F 69% 29.96 in 10.0 mi Calm Calm - N/A   Clear
11:35 PM 77.0 °F - 68.0 °F 74% 29.96 in 10.0 mi Calm Calm - N/A   Clear
11:55 PM 77.0 °F - 68.0 °F 74% 29.96 in 10.0 mi Calm Calm - N/A   Clear